Location: �perlecques
(50.8057°N, 2.1521°E)
Time: 20:57:10
(UTC+00:00)

Tiros 1 - Pass Details

Date: 05 August 2021
Orbit: 630 x 663 km, 48.4° (Epoch: 28 September)

Event Time Altitude Azimuth Distance (km) Brightness Sun altitude
Rises 18:03:33 0° 251° (WSW) 2,986 11.7 12.0°
Reaches altitude 10° 18:05:55 10° 248° (WSW) 2,072 10.8 11.6°
Maximum altitude 18:10:38 60° 169° (S) 753 7.6 10.9°
Drops below altitude 10° 18:15:18 10° 90° (E) 2,057 9.2 10.1°
Sets 18:17:39 0° 87° (E) 2,963 9.9 9.8°
